Weather History for Tallahassee, FL

Change the Weather History Date:

Sunday, December 23, 2012

  Actual Average Record
Temperature  
Mean Temperature 45 °F 52 °F  
Max Temperature 63 °F 64 °F 82 °F (1931)
Min Temperature 27 °F 40 °F 17 °F (1973)
Degree Days  
Heating Degree Days 20    
Month to date heating degree days 158  
Since 1 July heating degree days 416  
Cooling Degree Days 0    
Month to date cooling degree days 18  
Year to date cooling degree days 2976  
Growing Degree Days 0 (Base 50)    
Moisture  
Dew Point 27 °F    
Average Humidity 51    
Maximum Humidity 85    
Minimum Humidity 17    
Precipitation  
Precipitation 0.00 in 0.12 in 1.43 in (1986)
Month to date precipitation 2.11 2.91  
Year to date precipitation 58.15 58.24  
Sea Level Pressure  
Sea Level Pressure 30.22 in    
Wind  
Wind Speed 1 mph (South)    
Max Wind Speed 14 mph    
Max Gust Speed 16 mph    
Visibility 10 miles    
Events      
T = Trace of Precipitation, MM = Missing Value Source: NWS Daily Summary

Daily Weather History Graph

Daily Weather History Graph

Search for Another Location

Airport:

Trip Planner

Search our weather history database for the weather conditions in past years. The results will help you decide how hot, cold, wet, or windy it might be!

Date:

Astronomy

Dec. 23, 2012 Rise Set
Actual Time 7:31 AM EST 5:42 PM EST
Civil Twilight 7:04 AM EST 6:08 PM EST
Nautical Twilight 6:34 AM EST 6:38 PM EST
Astronomical Twilight 6:05 AM EST 7:08 PM EST
Moon 2:25 PM EST (12/23) 3:21 AM EST (12/23)
Length of Visible Light 11h 04m
Length of Day
10h 11m
Waxing Gibbous, 81% of the Moon is Illuminated
Dec 23
Waxing Gibbous
Dec 28
Full
Jan 4
Last Quarter
Jan 11
New
Jan 18
First Quarter

Hourly Weather History & Observations

Time (EST) Temp. Dew Point Humidity Pressure Visibility Wind Dir Wind Speed Gust Speed Precip Events Conditions
12:53 AM 30.0 °F 24.1 °F 79% 30.26 in 10.0 mi Calm Calm - N/A   Clear
1:53 AM 30.0 °F 25.0 °F 82% 30.25 in 10.0 mi Calm Calm - N/A   Clear
2:53 AM 28.0 °F 24.1 °F 85% 30.25 in 10.0 mi Calm Calm - N/A   Clear
3:53 AM 28.9 °F 25.0 °F 85% 30.25 in 10.0 mi Calm Calm - N/A   Clear
4:53 AM 28.9 °F 24.1 °F 82% 30.25 in 10.0 mi Calm Calm - N/A   Clear
5:53 AM 30.0 °F 25.0 °F 82% 30.24 in 10.0 mi Calm Calm - N/A   Clear
6:53 AM 27.0 °F 23.0 °F 85% 30.25 in 10.0 mi Calm Calm - N/A   Clear
7:53 AM 28.9 °F 25.0 °F 85% 30.27 in 10.0 mi Calm Calm - N/A   Clear
8:53 AM 34.0 °F 28.0 °F 79% 30.28 in 10.0 mi Calm Calm - N/A   Clear
9:53 AM 45.0 °F 30.0 °F 56% 30.30 in 10.0 mi Calm Calm - N/A   Clear
10:53 AM 54.0 °F 28.0 °F 37% 30.28 in 10.0 mi Calm Calm - N/A   Clear
11:53 AM 59.0 °F 21.0 °F 23% 30.26 in 10.0 mi Calm Calm - N/A   Clear
1:53 PM 63.0 °F 19.9 °F 19% 30.18 in 10.0 mi SE 3.5 mph - N/A   Clear
2:53 PM 63.0 °F 23.0 °F 22% 30.17 in 10.0 mi South 3.5 mph - N/A   Clear
3:53 PM 62.1 °F 23.0 °F 22% 30.16 in 10.0 mi SSE 5.8 mph - N/A   Clear
4:53 PM 57.9 °F 28.0 °F 32% 30.16 in 10.0 mi SW 8.1 mph - N/A   Partly Cloudy
5:53 PM 55.0 °F 27.0 °F 34% 30.17 in 10.0 mi SSW 4.6 mph - N/A   Partly Cloudy
6:53 PM 53.1 °F 30.0 °F 41% 30.17 in 10.0 mi Calm Calm - N/A   Clear
7:53 PM 52.0 °F 33.1 °F 49% 30.16 in 10.0 mi Calm Calm - N/A   Clear
8:53 PM 50.0 °F 34.0 °F 54% 30.17 in 10.0 mi Calm Calm - N/A   Partly Cloudy
9:53 PM 48.0 °F 36.0 °F 63% 30.17 in 10.0 mi Calm Calm - N/A   Clear
10:53 PM 48.0 °F 37.0 °F 66% 30.16 in 10.0 mi Calm Calm - N/A   Mostly Cloudy
11:53 PM 46.9 °F 36.0 °F 66% 30.15 in 10.0 mi Calm Calm - N/A   Partly Cloudy